EZY53ZM EGKK-EDDM

Flight info

Callsign EZY53ZM
Flight time N/A
Altitude 37000
Route MIMFO Y312 DVR UL9 KONAN UL607 KOK DCT MATUG DCT MOVUM T109 HAREM T104 ROKIL ROKIL1A
Aircraft A320/M-SDE3FGHIRWY/LB1

Departure

Time 2026-04-15 16:55
Airport London Gatwick Airport (EGKK)

Arrival

Time N/A
Airport Munich Airport (EDDM)
Time Latitude Longitude Altitude Speed Heading
2026-04-15 16:28 51.15981 -0.17145 213 ft 0 kts 315°
2026-04-15 16:29 51.16021 -0.17050 215 ft 0 kts 333°
2026-04-15 16:42 51.16018 -0.17048 204 ft 1 kts 333°
2026-04-15 16:42 51.16002 -0.17035 214 ft 3 kts 333°
2026-04-15 16:42 51.15984 -0.17021 216 ft 3 kts 333°
2026-04-15 16:43 51.15967 -0.17007 212 ft 3 kts 322°
2026-04-15 16:43 51.15957 -0.16987 214 ft 3 kts 272°
2026-04-15 16:43 51.15959 -0.16962 213 ft 1 kts 249°
2026-04-15 16:43 51.15964 -0.16941 209 ft 2 kts 249°
2026-04-15 16:44 51.15966 -0.16934 216 ft 0 kts 249°
2026-04-15 16:47 51.15965 -0.16938 210 ft 1 kts 249°
2026-04-15 16:47 51.15937 -0.17007 209 ft 13 kts 225°
2026-04-15 16:47 51.15858 -0.17078 206 ft 14 kts 190°
2026-04-15 16:47 51.15806 -0.17183 215 ft 14 kts 258°
2026-04-15 16:48 51.15784 -0.17343 204 ft 16 kts 257°
2026-04-15 16:48 51.15751 -0.17498 214 ft 13 kts 215°
2026-04-15 16:48 51.15659 -0.17477 204 ft 14 kts 168°
2026-04-15 16:48 51.15556 -0.17442 207 ft 16 kts 168°
2026-04-15 16:49 51.15477 -0.17414 204 ft 4 kts 167°
2026-04-15 16:49 51.15476 -0.17414 204 ft 0 kts 167°
2026-04-15 16:49 51.15475 -0.17414 204 ft 0 kts 167°
2026-04-15 16:50 51.15453 -0.17406 210 ft 9 kts 167°
2026-04-15 16:50 51.15377 -0.17380 214 ft 12 kts 167°
2026-04-15 16:50 51.15290 -0.17349 208 ft 13 kts 168°
2026-04-15 16:50 51.15244 -0.17245 204 ft 13 kts 77°
2026-04-15 16:51 51.15260 -0.17129 213 ft 7 kts 78°
2026-04-15 16:51 51.15270 -0.17056 207 ft 6 kts 78°
2026-04-15 16:51 51.15278 -0.16996 208 ft 5 kts 78°
2026-04-15 16:51 51.15284 -0.16951 204 ft 4 kts 78°
2026-04-15 16:52 51.15288 -0.16919 212 ft 2 kts 78°
2026-04-15 16:52 51.15291 -0.16897 213 ft 2 kts 78°
2026-04-15 16:52 51.15286 -0.16838 214 ft 7 kts 128°
2026-04-15 16:52 51.15245 -0.16813 207 ft 0 kts 167°
2026-04-15 16:53 51.15238 -0.16811 215 ft 4 kts 168°
2026-04-15 16:53 51.15173 -0.16788 203 ft 13 kts 168°
2026-04-15 16:54 51.15112 -0.16876 209 ft 14 kts 259°
2026-04-15 16:54 51.15083 -0.17087 212 ft 37 kts 257°
2026-04-15 16:54 51.14975 -0.17866 207 ft 104 kts 258°
2026-04-15 16:54 51.14782 -0.19275 211 ft 154 kts 255°
2026-04-15 16:55 51.14547 -0.20962 819 ft 156 kts 255°
2026-04-15 16:55 51.14321 -0.22672 1550 ft 160 kts 253°
2026-04-15 16:55 51.14073 -0.24525 1824 ft 187 kts 255°
2026-04-15 16:55 51.13789 -0.26655 2426 ft 201 kts 256°
2026-04-15 16:56 51.13826 -0.28896 3410 ft 209 kts 279°
2026-04-15 16:56 51.14584 -0.30960 4209 ft 228 kts 309°
2026-04-15 16:56 51.16035 -0.32173 5056 ft 251 kts 342°
2026-04-15 16:56 51.17821 -0.31850 5812 ft 273 kts 21°
2026-04-15 16:57 51.19269 -0.29929 6558 ft 282 kts 59°
2026-04-15 16:57 51.20026 -0.27068 7322 ft 280 kts 80°
2026-04-15 16:57 51.20398 -0.24020 8122 ft 280 kts 88°
2026-04-15 16:57 51.20635 -0.20930 8947 ft 283 kts 89°
2026-04-15 16:58 51.20876 -0.17687 9405 ft 306 kts 87°
2026-04-15 16:58 51.21187 -0.14232 9967 ft 321 kts 85°
2026-04-15 16:58 51.21572 -0.10691 10406 ft 339 kts 83°
2026-04-15 16:58 51.22040 -0.06868 10682 ft 362 kts 82°
2026-04-15 16:59 51.22568 -0.02857 11250 ft 373 kts 81°
2026-04-15 16:59 51.23117 0.01220 11766 ft 380 kts 81°
2026-04-15 16:59 51.23674 0.05372 12445 ft 385 kts 81°
2026-04-15 16:59 51.24231 0.09579 13141 ft 390 kts 81°
2026-04-15 17:00 51.24787 0.13834 13791 ft 394 kts 81°
2026-04-15 17:00 51.25256 0.18096 14361 ft 396 kts 88°
2026-04-15 17:00 51.25300 0.22479 14957 ft 394 kts 99°
2026-04-15 17:00 51.24983 0.26822 15568 ft 395 kts 102°
2026-04-15 17:01 51.24647 0.31199 16184 ft 398 kts 102°
2026-04-15 17:01 51.24313 0.35604 16819 ft 402 kts 102°
2026-04-15 17:01 51.23975 0.40050 17460 ft 405 kts 102°
2026-04-15 17:01 51.23635 0.44466 18066 ft 408 kts 102°
2026-04-15 17:02 51.23289 0.48973 18593 ft 410 kts 102°
2026-04-15 17:02 51.22946 0.53490 19222 ft 410 kts 103°
2026-04-15 17:02 51.22601 0.58024 19853 ft 411 kts 103°
2026-04-15 17:02 51.22370 0.61032 20251 ft 413 kts 103°
2026-04-15 17:03 51.21897 0.67063 21028 ft 415 kts 104°
2026-04-15 17:03 51.21535 0.71643 21601 ft 418 kts 104°
2026-04-15 17:03 51.21166 0.76252 22212 ft 420 kts 105°
2026-04-15 17:03 51.20795 0.80882 22807 ft 422 kts 105°
2026-04-15 17:04 51.20546 0.83967 23187 ft 424 kts 105°
2026-04-15 17:04 51.20169 0.88645 23694 ft 426 kts 105°
2026-04-15 17:04 51.19790 0.93341 24143 ft 428 kts 105°
2026-04-15 17:04 51.19284 0.99590 24747 ft 429 kts 105°
2026-04-15 17:05 51.18896 1.04321 25174 ft 431 kts 106°
2026-04-15 17:05 51.18632 1.07522 25439 ft 432 kts 106°
2026-04-15 17:05 51.18110 1.13832 25951 ft 435 kts 106°
2026-04-15 17:05 51.17712 1.18618 26320 ft 437 kts 106°
2026-04-15 17:06 51.17448 1.21797 26566 ft 438 kts 106°
2026-04-15 17:06 51.17045 1.26623 26932 ft 440 kts 106°
2026-04-15 17:06 51.16505 1.33049 27419 ft 443 kts 106°
2026-04-15 17:06 51.16235 1.36274 27657 ft 445 kts 105°
2026-04-15 17:07 51.15894 1.41190 28019 ft 449 kts 103°
2026-04-15 17:07 51.15636 1.46171 28290 ft 453 kts 102°
2026-04-15 17:07 51.15427 1.51199 28611 ft 457 kts 101°
2026-04-15 17:07 51.15232 1.56268 28938 ft 459 kts 101°
2026-04-15 17:08 51.14957 1.63008 29382 ft 462 kts 102°
2026-04-15 17:08 51.14804 1.66458 29601 ft 463 kts 102°
2026-04-15 17:08 51.14477 1.73252 30022 ft 465 kts 102°
2026-04-15 17:08 51.14303 1.76654 30207 ft 467 kts 102°
2026-04-15 17:09 51.14034 1.81812 30453 ft 469 kts 102°
2026-04-15 17:09 51.13758 1.87002 30705 ft 471 kts 103°
2026-04-15 17:09 51.13479 1.92212 30891 ft 473 kts 102°
2026-04-15 17:09 51.13199 1.97453 31105 ft 476 kts 102°
2026-04-15 17:10 51.12924 2.02654 31348 ft 478 kts 102°
2026-04-15 17:10 51.12647 2.07923 31657 ft 478 kts 102°
2026-04-15 17:10 51.12371 2.13188 32015 ft 477 kts 102°
2026-04-15 17:10 51.12092 2.18437 32360 ft 476 kts 102°
2026-04-15 17:11 51.11807 2.23679 32708 ft 475 kts 102°
2026-04-15 17:11 51.11520 2.28932 33046 ft 475 kts 103°
2026-04-15 17:11 51.11236 2.34104 33380 ft 474 kts 103°
2026-04-15 17:12 51.10662 2.44533 34042 ft 472 kts 102°
2026-04-15 17:12 51.10373 2.49728 34363 ft 471 kts 102°
2026-04-15 17:12 51.10075 2.54916 34633 ft 471 kts 102°
2026-04-15 17:12 51.09774 2.60099 34887 ft 471 kts 102°
2026-04-15 17:13 51.09392 2.65269 35125 ft 466 kts 108°
2026-04-15 17:13 51.08652 2.70254 35347 ft 462 kts 112°
2026-04-15 17:13 51.07846 2.75134 35564 ft 462 kts 112°
2026-04-15 17:13 51.07024 2.80081 35787 ft 463 kts 112°
2026-04-15 17:14 51.06200 2.85026 35974 ft 463 kts 111°
2026-04-15 17:14 51.05373 2.89986 36192 ft 463 kts 111°
2026-04-15 17:14 51.04546 2.94938 36395 ft 464 kts 111°
2026-04-15 17:14 51.03720 2.99889 36619 ft 464 kts 111°
2026-04-15 17:15 51.02903 3.04782 36823 ft 464 kts 111°
2026-04-15 17:15 51.02073 3.09736 37028 ft 464 kts 111°
2026-04-15 17:15 51.00398 3.19637 37132 ft 463 kts 111°
2026-04-15 17:16 50.98715 3.29513 37125 ft 463 kts 111°
2026-04-15 17:16 50.97034 3.39346 37120 ft 461 kts 111°
2026-04-15 17:17 50.95362 3.49076 37124 ft 460 kts 111°
2026-04-15 17:17 50.93672 3.58872 37127 ft 460 kts 111°
2026-04-15 17:18 50.91978 3.68657 37126 ft 460 kts 111°
2026-04-15 17:18 50.90285 3.78371 37107 ft 460 kts 111°
2026-04-15 17:19 50.88568 3.88138 37126 ft 460 kts 111°
2026-04-15 17:19 50.86846 3.97905 37138 ft 460 kts 111°
2026-04-15 17:20 50.85118 4.07653 37150 ft 460 kts 111°
2026-04-15 17:20 50.83381 4.17397 37156 ft 460 kts 111°
2026-04-15 17:21 50.81638 4.27116 37162 ft 459 kts 112°
2026-04-15 17:21 50.79890 4.36772 37165 ft 459 kts 112°
2026-04-15 17:22 50.78126 4.46490 37145 ft 460 kts 111°
2026-04-15 17:22 50.76356 4.56211 37151 ft 460 kts 112°
2026-04-15 17:23 50.74582 4.65865 37157 ft 461 kts 112°
2026-04-15 17:23 50.72794 4.75594 37133 ft 460 kts 111°
2026-04-15 17:24 50.71004 4.85277 37145 ft 460 kts 111°
2026-04-15 17:24 50.69201 4.94958 37162 ft 460 kts 112°
2026-04-15 17:25 50.67403 5.04561 37162 ft 460 kts 112°
2026-04-15 17:25 50.65585 5.14221 37142 ft 460 kts 111°
2026-04-15 17:26 50.63757 5.23882 37154 ft 459 kts 111°
2026-04-15 17:26 50.61932 5.33464 37152 ft 459 kts 111°
2026-04-15 17:27 50.60096 5.43098 37159 ft 459 kts 111°